Tracking 18852 objects as of 23-Nov-2017
HD Live streaming from Space Station
objects crossing your sky now

FENGYUN 1C DEB

Track FENGYUN 1C DEB now!
10-day predictions


NORAD ID: 31443
Int'l Code: 1999-025BUF
Perigee: 627.6 km
Apogee: 991.7 km
Inclination: 99.3 °
Period: 100.9 minutes
Semi major axis: 7180 km
RCS: 0.0109 m2 (small)
Launch date: May 10, 1999
Source: People's Republic of China (PRC)
Launch site: Taiyaun Space Center, China (TSC)

Note: This is SATELLITE DEBRIS
aabbcc
Your satellite tracking list
Your tracking list is empty




NASA's NSSDC Master Catalog

Two Line Element Set (TLE):
1 31443U 99025BUF 17324.45943635  .00000837  00000-0  26326-3 0  9996
2 31443  99.2563 188.7471 0253540 338.7953  20.2862 14.26777920551729
Source of the keplerian elements: AFSPC